Home > Weather > Bünde > Past weeks

Flag for Germany Past Weather in Bünde, North Rhine-Westphalia, Germany — Yesterday and Last 2 Weeks

Now
70 °F

Mild.


Feels Like: 70 °F
Forecast: 66 / 90 °F
Wind: 7 mph from South

Location: Bueckeburg

Current Time: Aug 25, 2016 at 8:24:23 AM

Latest Report: Aug 25, 2016 at 7:20 AM


Visibility: N/A

Pressure: 30.09 "Hg

Humidity: 69%

Dew Point: 59 °F

Location of BündeLocation

Past Weather in Bünde — Graph

°F

Bünde Temperature Yesterday

Maximum temperature yesterday: 90 °F (at 5:20 PM)
Minimum temperature yesterday: 61 °F (at 1:20 AM)
Average temperature yesterday: 75 °F

High & Low Weather Summary for the Past Weeks

 TemperatureHumidityPressure
High90 °F (Aug 24, 5:20 PM)100% (Aug 11, 3:20 AM)30.33 "Hg (Aug 11, 3:20 AM)
Low45 °F (Aug 11, 3:20 AM)32% (Aug 19, 6:20 PM)29.80 "Hg (Aug 18, 2:20 PM)
Average64 °F74%30.09 "Hg
* Reported Aug 10 6:20 AM — Aug 25 6:20 AM, Bünde, Weather by CustomWeather, © 2016

Note: Actual official high and low records may vary slightly from our data, if they occured in-between our weather recording intervals... More about our weather records

Advertising

Bünde Weather History for the Previous 24 Hours

Scroll right to see more
 ConditionsComfort  
Time TempWeatherWind HumidityBarometerVisibility
6:20 AM
Thu, Aug 25
68 °FMild.6 mph69%30.09 "HgN/A
5:20 AM72 °FMild.2 mph61%30.09 "HgN/A
4:20 AM72 °FMild.2 mph61%30.12 "HgN/A
3:20 AM75 °FPassing clouds.13 mph54%30.09 "HgN/A
2:20 AM75 °FPassing clouds.12 mph54%30.09 "HgN/A
1:20 AM77 °FPassing clouds.12 mph51%30.12 "HgN/A
12:20 AM75 °FMild.8 mph57%30.12 "HgN/A
11:20 PM
Wed, Aug 24
72 °FMild.1 mph69%30.12 "HgN/A
10:20 PM72 °FPassing clouds.3 mph73%30.15 "HgN/A
9:20 PM77 °FPassing clouds.5 mph57%30.15 "HgN/A
8:20 PM82 °FPassing clouds.5 mph48%30.15 "HgN/A
7:20 PM88 °FPassing clouds.6 mph38%30.12 "HgN/A
6:54 PM88 °FPassing clouds.7 mph38%30.15 "HgN/A
6:20 PM88 °FPassing clouds.7 mph38%30.15 "HgN/A
5:20 PM90 °FPassing clouds.5 mph36%30.15 "HgN/A
4:20 PM88 °FPassing clouds.7 mph35%30.15 "HgN/A
3:20 PM88 °FPassing clouds.9 mph38%30.18 "HgN/A
2:20 PM86 °FPassing clouds.9 mph38%30.18 "HgN/A
1:20 PM84 °FPassing clouds.9 mph43%30.21 "HgN/A
12:20 PM81 °FPassing clouds.7 mph48%30.21 "HgN/A
11:20 AM79 °FPassing clouds.9 mph54%30.24 "HgN/A
10:20 AM77 °FPassing clouds.8 mph61%30.24 "HgN/A
9:20 AM73 °FPassing clouds.12 mph69%30.24 "HgN/A
8:20 AM68 °FPassing clouds.2 mph83%30.24 "HgN/A
Weather by CustomWeather, © 2016

See weather overviewHow to use our weather pages